RH
31 38 43 47 53 55 57 68 76 83 72 58 59 61 60 59 58 59 59 61 60 61 58 54 54 58 65 68 71 71 70 69 67 66 65 68 71 70
38 43 45 49 54 58 59 66 75 79 85 66 65 63 63 67 66 65 65 66 65 60 60 60 61 56 54 60 61 58 70 60 65 78 79 70 69 67
44 46 47 50 56 60 61 69 78 79 81 71 67 70 68 62 62 63 64 67 70 70 71 65 55 56 55 54 60 62 62 68 69 64 72 68 67 69
46 47 48 51 58 62 67 75 77 77 77 86 84 69 65 66 70 74 85 94 89 72 59 54 55 55 56 59 67 78 71 64 60 62 62 62 64 67
48 50 53 58 62 67 70 76 78 79 85 76 73 73 75 82 82 94 84 61 58 56 57 58 59 61 62 66 67 72 81 76 76 75 75 72 70 69
55 57 58 60 66 71 68 67 79 70 74 80 81 82 83 93 76 65 60 62 65 67 70 70 69 69 64 61 62 62 64 66 66 67 70 72 76 76
64 61 62 68 67 65 65 67 71 84 91 82 93 88 72 61 66 67 70 72 86 81 71 71 71 70 70 73 71 70 70 70 68 67 69 71 74 74
62 62 65 71 71 70 70 68 65 70 88 95 91 77 70 70 71 77 95 84 85 71 73 90 82 78 77 76 74 74 73 71 73 81 86 79 81 81
66 68 71 75 80 87 82 70 90 90 74 71 76 75 73 79 98 94 89 90 87 81 85 88 77 77 74 73 72 74 76 78 76 81 84 84 80 81
69 72 78 86 88 70 83 99 79 73 71 68 68 84 98 79 75 93 99 97 90 78 72 91 78 78 76 77 76 75 74 75 80 82 81 75 79 81
73 87 86 77 69 75 91 76 73 74 66 77 94 73 71 76 85 98 92 93 85 74 73 80 82 85 84 84 82 81 76 75 76 83 74 74 77 82
92 78 77 69 70 89 65 71 79 74 96 93 75 78 82 84 81 90 98 94 91 88 66 88 89 89 90 70 68 75 82 79 77 78 79 78 73 74
69 81 79 79 77 64 66 74 80 89 86 79 84 86 85 84 87 93 97 99 95 92 83 95 93 90 92 91 80 76 77 81 89 91 88 92 90 92
86 84 88 77 69 69 73 77 75 75 80 85 90 87 88 92 94 99 100 100 100 98 96 100 96 96 94 90 86 76 80 90 98 98 98 99 98 98
80 76 74 73 71 76 78 77 76 82 90 95 91 90 94 98 99 98 96 95 96 95 94 96 100 98 97 94 93 88 94 87 90 98 98 98 98 98
80 78 76 72 76 78 80 80 84 86 91 95 95 95 96 95 96 96 97 96 96 86 84 87 98 99 96 94 97 93 90 96 98 100 100 100 99 100
73 80 77 81 83 83 83 84 86 89 93 95 96 96 95 94 94 94 97 96 94 90 88 88 90 95 92 95 95 92 96 98 99 100 100 100 100 100
81 82 85 87 88 88 90 91 91 92 95 97 97 97 96 96 95 93 96 96 94 90 94 92 95 92 80 72 97 97 97 98 99 100 100 98 99 100
86 90 91 91 92 93 94 95 95 95 98 99 99 98 97 97 93 94 94 93 91 91 91 96 96 95 93 92 73 88 98 98 99 98 99 99 98 100
92 93 94 94 95 96 96 97 97 97 98 99 98 98 98 97 96 94 94 95 94 93 91 86 93 96 96 97 97 95 100 99 99 98 98 100 100 97
94 95 95 96 97 98 98 99 100 98 97 97 98 98 98 98 95 95 96 92 90 94 93 90 98 99 94 86 86 94 99 100 100 99 99 98 95 87
96 98 98 98 99 100 100 100 99 98 97 98 98 98 98 99 97 96 96 97 95 97 99 87 94 95 95 96 96 96 96 100 100 100 100 100 98 96
99 99 100 100 100 100 100 100 100 97 98 97 98 98 98 97 99 99 99 99 100 99 98 92 92 94 97 97 96 96 95 96 98 97 98 100 100 100
Wind_Speed
14 16 18 17 19 21 21 20 13 11 15 22 15 25 27 29 30 32 33 34 36 37 40 43 43 43 43 44 41 43 42 42 44 45 44 42 43 43
19 20 19 20 22 21 23 22 20 19 12 32 33 32 29 28 32 35 36 36 37 39 39 40 40 45 50 48 49 48 47 47 47 44 43 42 43 43
21 21 21 22 23 24 26 24 22 21 14 35 37 34 37 36 34 32 32 33 36 37 37 42 49 44 42 43 43 44 44 44 45 46 45 46 47 45
22 22 23 25 25 28 26 24 25 27 25 17 34 39 37 38 37 33 28 23 29 39 42 42 42 43 43 43 42 41 43 45 44 44 44 45 46 46
23 24 25 26 27 26 28 27 25 24 25 29 33 36 38 33 32 28 30 32 32 37 38 39 40 40 40 42 44 45 45 45 45 44 44 44 44 44
21 21 24 25 26 27 26 26 26 31 30 30 31 32 31 26 31 31 32 31 35 33 34 38 38 41 44 44 42 42 41 42 43 44 44 45 44 44
25 27 25 23 25 26 30 32 31 29 29 28 25 22 30 28 27 31 32 34 31 29 33 36 31 33 37 39 39 40 39 39 40 41 41 42 43 43
27 28 28 24 24 29 31 31 32 33 33 21 25 23 26 29 34 32 27 25 15 26 22 33 31 35 35 35 37 38 39 40 41 41 41 42 42 42
27 29 29 25 29 32 32 35 33 26 30 31 29 30 32 34 31 34 30 28 27 36 31 29 32 34 34 35 37 39 39 40 41 41 40 40 41 41
27 27 28 30 29 34 35 26 32 28 27 32 30 34 31 37 34 31 35 34 32 33 28 15 32 34 35 36 39 40 40 39 38 37 36 38 39 40
24 23 24 27 32 35 34 31 30 29 33 31 26 35 35 33 33 33 26 23 14 26 32 25 27 29 35 39 38 33 32 34 35 36 37 38 37 36
22 23 23 31 34 34 35 30 25 32 31 27 32 32 32 31 30 28 29 19 14 14 26 16 26 23 8 26 25 32 32 33 33 34 34 36 37 35
26 25 28 31 35 36 33 27 29 34 30 30 28 30 29 29 29 28 29 28 26 21 39 32 21 26 16 12 26 28 30 33 32 33 34 34 35 36
25 28 30 34 34 31 29 28 31 31 28 27 27 27 28 30 33 34 35 33 32 35 43 39 25 26 18 14 14 22 30 31 30 31 30 29 28 30
26 31 32 32 29 26 27 28 28 25 25 24 24 27 29 33 36 33 33 33 32 33 31 32 30 30 25 13 11 20 23 23 28 29 27 26 24 23
27 25 27 26 24 25 25 25 25 25 26 24 25 30 30 29 32 30 29 31 29 30 30 28 25 28 24 22 21 16 28 9 24 26 22 19 21 23
31 24 23 23 24 25 26 26 26 26 24 25 26 28 28 28 29 30 27 27 20 21 29 30 32 28 26 24 13 21 21 19 24 25 13 2 13 19
23 20 21 22 22 24 25 27 28 27 26 27 27 26 26 26 27 29 27 23 19 23 23 27 29 26 24 8 12 20 23 20 24 25 19 7 3 14
18 20 21 22 24 25 26 27 28 29 29 26 27 26 25 26 26 26 25 23 21 22 22 23 23 12 10 8 10 28 23 20 22 20 22 15 8 8
18 20 22 24 25 26 27 27 29 30 28 27 27 27 25 23 24 23 22 21 20 20 19 21 21 18 7 5 4 19 31 26 19 16 16 19 20 27
22 23 24 25 26 27 28 29 29 29 29 28 27 26 26 23 23 23 22 26 25 17 9 14 24 22 21 14 8 11 27 36 40 30 23 11 10 22
23 25 26 27 27 28 30 30 30 30 29 28 28 27 27 24 23 23 21 19 18 16 15 21 24 21 15 8 6 10 20 27 35 44 46 41 19 11
25 26 28 29 29 30 30 29 29 30 29 28 28 28 26 25 25 23 22 18 17 14 17 13 19 16 14 10 11 11 20 21 22 26 37 42 43 44
Wind_Direction
329 327 321 325 329 329 322 303 290 308 307 309 305 305 303 301 299 295 293 290 290 291 292 293 293 292 291 288 285 285 282 278 276 272 269 267 265 264
327 321 317 320 321 323 323 308 288 280 293 304 305 304 304 297 293 293 286 288 286 289 290 289 290 291 290 285 284 282 278 279 276 275 271 270 269 267
325 320 310 314 312 314 319 307 288 281 280 295 297 302 304 301 293 289 286 283 281 285 290 288 292 292 287 285 282 281 280 277 276 274 272 271 271 269
322 317 312 313 309 316 311 298 290 288 281 288 296 302 301 300 300 296 291 287 288 285 288 291 291 290 289 287 285 284 281 279 276 273 270 268 264 263
326 321 319 319 316 312 310 299 293 298 296 293 293 297 297 301 302 302 296 294 290 287 291 291 290 290 288 287 285 283 280 277 275 271 269 268 266 264
331 330 327 323 318 314 309 308 308 304 300 294 295 295 299 310 303 303 302 299 293 292 290 287 289 290 290 289 287 285 282 281 278 275 273 270 267 265
332 330 328 321 315 315 314 315 308 302 296 296 294 318 308 313 306 303 296 298 296 299 294 289 290 287 285 286 283 281 280 279 275 271 269 266 263 261
332 330 326 317 314 314 313 311 305 303 307 324 310 305 304 304 299 297 301 307 301 307 296 291 292 286 283 280 281 284 282 279 278 273 268 265 261 259
328 323 318 312 313 313 307 305 303 313 310 308 303 297 297 298 303 306 302 300 297 301 303 293 294 286 286 284 285 284 281 278 276 275 270 266 262 259
321 318 314 313 316 316 313 321 320 314 310 306 300 297 302 308 306 304 301 299 297 298 296 288 295 289 292 286 285 284 283 281 278 274 271 265 260 257
317 315 318 317 317 319 323 321 317 313 311 307 307 309 308 308 308 309 306 305 301 302 303 290 292 292 292 287 283 282 282 280 277 270 275 265 260 257
318 322 321 323 320 323 325 323 320 310 311 324 319 316 313 309 311 307 301 297 299 304 306 305 301 303 299 286 293 291 284 281 279 276 272 265 258 255
327 325 323 323 325 325 322 324 310 319 326 322 315 313 313 312 311 309 305 301 298 291 296 306 300 297 288 299 299 296 287 281 277 273 271 264 255 249
323 322 318 323 324 323 323 320 322 324 320 316 314 315 316 314 313 312 309 305 297 289 296 297 287 293 293 296 295 297 298 290 278 270 264 262 254 246
322 318 322 323 323 323 322 323 323 320 315 311 315 312 312 309 309 312 313 312 309 306 304 305 293 294 294 291 288 297 302 307 291 274 263 248 237 230
323 326 325 323 323 321 321 321 320 319 317 315 311 309 311 313 312 315 315 317 318 316 322 322 318 311 304 293 292 291 301 301 302 300 284 248 217 212
328 327 326 325 323 323 322 321 321 320 318 315 314 312 312 314 312 318 317 319 314 317 321 328 331 327 314 294 294 305 317 322 333 340 349 106 189 198
329 324 322 321 319 320 318 317 318 319 317 315 313 310 309 311 315 317 319 319 315 319 319 328 332 338 343 330 336 329 344 341 346 355 6 34 157 198
325 322 318 318 317 315 314 314 313 314 314 311 307 305 309 309 315 314 316 319 318 319 326 326 333 337 338 335 311 4 347 348 351 10 14 19 18 40
325 321 316 316 314 311 312 313 313 313 313 311 312 311 310 309 311 311 313 315 316 326 326 335 339 336 336 319 315 321 4 11 11 3 10 30 39 50
323 318 316 315 311 310 311 312 310 309 311 310 309 309 310 311 307 307 308 315 323 322 325 334 332 340 353 348 357 354 7 25 37 35 20 25 40 49
318 316 315 312 310 310 311 310 309 310 311 311 309 308 308 308 303 304 305 308 314 317 316 332 353 5 2 355 356 1 8 19 37 43 46 52 56 58
316 316 313 311 311 311 310 309 308 307 307 307 305 305 306 306 306 305 303 305 313 323 344 336 353 4 0 360 10 6 13 14 24 36 41 47 59 62